Location: Unspecified
(0.0000°N, 0.0000°E)
Time: 22:33:17
(UTC+00:00)

LAPAN A2 - Visible Passes

Search period start: 19 September 2020 00:00
Search period end: 29 September 2020 00:00
Orbit: 631 x 649 km, 6.0° (Epoch: 19 September)

Date Brightness Start Highest point End Pass type
(mag) Time Alt. Az. Time Alt. Az. Time Alt. Az.
19 Sep ? 04:06:38 52° NNE 04:06:38 52° NNE 04:10:40 10° ENE visible
19 Sep ? 19:41:47 10° WSW 19:45:17 35° SSW 19:45:17 35° SSW visible
20 Sep ? 04:27:44 43° NW 04:28:38 49° N 04:33:15 10° ENE visible
20 Sep ? 18:19:57 10° WSW 18:24:24 40° S 18:28:51 10° ESE visible
20 Sep ? 20:04:26 10° WSW 20:06:22 22° SW 20:06:22 22° SW visible
21 Sep ? 03:11:25 11° ENE 03:11:25 11° ENE 03:11:31 10° ENE visible
21 Sep ? 04:48:49 24° WNW 04:51:18 44° N 04:55:51 10° ENE visible
21 Sep ? 18:42:39 10° WSW 18:47:05 39° S 18:50:03 19° ESE visible
21 Sep ? 20:27:03 10° WSW 20:27:28 12° WSW 20:27:28 12° WSW visible
22 Sep ? 03:32:31 20° ENE 03:32:31 20° ENE 03:34:06 10° ENE visible
22 Sep ? 05:09:55 12° WNW 05:13:57 41° N 05:18:28 10° ENE visible
22 Sep ? 19:05:18 10° WSW 19:09:45 41° S 19:11:09 32° SE visible
23 Sep ? 03:53:36 33° NE 03:53:36 33° NE 03:56:41 10° ENE visible
23 Sep ? 19:27:54 10° WSW 19:32:15 44° S 19:32:15 44° S visible
24 Sep ? 04:14:42 41° N 04:14:47 41° N 04:19:18 10° ENE visible
24 Sep ? 19:50:30 10° WSW 19:53:21 33° SW 19:53:21 33° SW visible
25 Sep ? 04:35:47 29° NW 04:37:28 40° N 04:41:57 10° ENE visible
25 Sep ? 18:28:46 10° WSW 18:33:16 45° S 18:37:02 14° ESE visible
25 Sep ? 20:13:04 10° WSW 20:14:27 19° WSW 20:14:27 19° WSW visible
26 Sep ? 03:19:28 14° ENE 03:19:28 14° ENE 03:20:08 10° ENE visible
26 Sep ? 04:56:53 17° WNW 05:00:09 40° N 05:04:40 10° ENE visible
26 Sep ? 18:51:21 10° WSW 18:55:56 51° S 18:58:08 28° ESE visible
27 Sep ? 03:40:34 24° NE 03:40:34 24° NE 03:42:48 10° ENE visible
27 Sep ? 05:18:14 10° WNW 05:22:49 43° N 05:27:23 10° ENE visible
27 Sep ? 19:13:56 10° WSW 19:18:35 60° S 19:19:14 54° SE visible
28 Sep ? 04:01:40 38° NNE 04:01:40 38° NNE 04:05:30 10° ENE visible
28 Sep ? 19:36:31 10° WSW 19:40:20 56° WSW 19:40:20 56° WSW visible
